Torna al catalogo

CZ-6A DEB

AttivoPO
NORAD 61339·DEBRIS·🇨🇳 China

Lanciato Aug 6, 2024 da Taiyuan Satellite Launch Center

Loading…

Prossimi Passaggi (prossime 24 ore)

TLE

AggiornatoSource: Space-Track

Epoca: Sep 14, 2026, 10:07 UTC

1 61339U 24140VC  26257.42215096  .00000389  00000-0  84244-4 0  9990
2 61339  88.9738 257.6916 0108157 319.9834  39.3439 14.52681559107580

Traccia CZ-6A DEB in tempo reale con AllMySat

Download on the App Store